1998-067WK

Last updated on Fri Aug 02 2024 00:02:09 GMT+0000 (Coordinated Universal Time)

1 59560U 98067WK 24213.81050360 .04141004 11879-4 17566-2 0 9991 2 59560 51.6156 78.9942 0011957 251.3800 108.5920 16.21924748 16367

Satellite not in orbit